Theta_e
323 323 326 329 330 328 330 331 332 329 327 329 337 340 343 342 345 348 350 350 350 349 348 348 349 349 349 349 351 348 349 342
322 323 325 326 329 329 328 333 334 332 331 328 329 335 339 341 342 347 350 349 350 351 350 349 349 350 350 350 352 351 349 347
320 323 324 325 327 329 330 330 332 334 333 333 331 329 335 338 339 342 346 347 349 351 351 351 351 350 351 351 351 353 351 351
319 321 322 322 323 324 332 334 331 332 333 333 332 331 331 335 337 338 340 344 347 348 350 352 352 352 351 351 352 353 353 353
317 318 318 320 323 325 326 328 333 333 332 333 332 331 330 331 332 336 338 340 345 347 348 352 352 353 352 352 352 352 354 354
316 317 317 319 321 323 326 328 328 331 333 333 333 332 332 332 332 335 337 338 342 346 348 350 352 353 353 352 352 352 352 353
313 314 314 315 318 321 325 327 331 331 331 333 333 333 333 333 333 334 336 338 340 343 347 350 351 353 354 353 352 352 351 352
314 313 313 313 314 315 319 321 324 326 329 330 330 333 334 332 334 335 336 336 336 342 345 348 350 353 355 354 354 353 352 351
315 313 313 313 312 313 314 317 319 323 326 328 330 332 334 335 337 339 340 340 342 343 341 344 347 351 354 356 354 354 353 353
318 314 313 313 313 313 314 315 319 321 323 325 326 329 332 343 342 342 342 343 344 345 345 345 345 348 351 355 356 355 355 355
316 315 314 312 316 321 318 320 321 321 322 322 323 326 330 334 342 343 344 345 345 345 346 347 348 345 346 351 357 356 357 355
314 314 314 313 318 314 318 323 322 326 323 323 325 330 331 337 338 339 342 345 347 348 349 350 351 350 349 347 353 358 357 357
315 315 312 317 315 313 321 323 315 321 324 326 329 332 330 328 330 333 337 344 346 352 353 354 355 353 352 347 350 354 358 359
315 314 314 314 314 314 314 310 310 318 320 322 324 323 323 324 324 327 333 340 350 355 356 355 355 355 354 352 347 354 357 359
313 313 315 313 312 313 311 309 309 318 318 319 320 319 319 320 323 325 330 339 348 354 359 357 352 350 352 350 350 355 356 359
313 313 311 309 310 310 309 308 311 317 317 316 318 319 317 319 323 325 325 331 339 347 352 353 355 356 354 357 356 357 358 359
310 309 307 309 309 307 308 311 315 316 316 316 316 318 317 319 324 325 325 325 327 334 340 346 353 357 357 358 357 359 359 359
310 307 307 308 307 306 308 313 314 314 315 315 316 317 317 322 325 324 324 324 322 325 332 337 344 349 354 356 358 358 359 359
306 305 306 307 306 305 308 311 312 314 314 315 315 317 316 321 323 322 322 323 323 322 323 325 334 344 349 352 357 358 359 360
Wind_Speed
6 19 21 22 24 25 25 24 17 19 26 24 26 26 26 32 24 36 37 34 35 37 39 41 42 45 47 44 45 45 41 42
5 9 18 21 18 21 18 24 27 20 22 19 27 24 26 20 18 22 27 34 33 35 37 39 41 42 43 44 45 44 43 44
17 12 19 16 20 18 18 23 21 19 17 15 21 25 24 24 28 24 27 25 28 33 36 38 37 38 41 43 43 42 43 44
21 13 18 24 22 26 18 22 21 21 16 14 13 21 24 24 29 36 31 27 30 30 33 36 38 38 40 41 41 43 43 45
17 15 16 16 21 16 20 26 24 20 20 22 3 9 11 23 32 30 35 32 29 30 30 34 37 38 39 40 41 39 40 43
14 8 11 14 24 23 20 16 21 24 21 26 9 4 11 17 24 30 30 31 33 30 29 31 35 40 40 40 39 38 37 40
17 18 13 16 15 13 18 14 18 21 25 23 15 13 8 7 11 17 16 19 31 28 30 31 32 37 41 38 40 40 42 42
18 16 15 18 19 18 21 20 20 24 26 21 23 17 16 9 11 5 8 8 11 19 22 25 29 33 37 43 41 42 43 48
19 17 18 20 21 20 22 23 22 22 23 20 19 10 19 15 11 4 11 10 9 10 15 22 28 28 33 41 42 40 44 42
14 18 19 16 13 16 23 24 24 25 26 26 28 18 27 5 6 9 10 13 13 13 14 17 21 25 29 31 41 43 44 42
13 14 18 19 1 9 8 13 17 22 24 33 33 33 19 24 5 9 11 14 15 15 16 18 19 23 23 31 35 43 43 47
11 16 20 16 11 8 5 13 11 18 23 23 21 14 10 11 9 11 12 14 17 19 20 21 24 24 27 31 36 42 47 50
16 14 12 12 8 9 5 3 30 23 17 14 11 13 13 14 15 13 13 14 18 19 23 23 23 25 31 34 39 46 41 40
15 9 16 8 7 5 6 22 27 26 14 15 15 14 15 13 16 17 16 15 10 15 17 19 22 27 33 37 41 37 36 39
5 5 3 4 10 14 13 21 37 22 12 12 12 11 12 13 14 15 16 15 12 9 6 6 10 17 27 33 32 34 36 38
8 2 11 16 13 10 16 30 35 14 9 9 10 9 12 10 16 20 20 22 20 14 12 12 2 8 14 22 26 29 33 34
5 7 17 4 7 12 19 26 12 8 7 8 9 9 9 9 15 16 21 24 25 22 22 19 13 9 10 15 24 27 30 32
3 11 11 12 16 13 19 9 7 3 3 5 5 7 6 7 13 15 19 24 24 27 21 19 16 17 10 14 17 25 28 31
6 13 10 10 7 13 15 8 5 1 9 2 2 2 4 8 12 9 18 17 22 23 23 18 17 16 15 18 14 15 23 27
Wind_Direction
273 211 236 236 217 236 254 258 250 215 220 241 222 236 174 226 186 193 187 193 196 199 201 201 202 203 202 203 209 214 209 214
213 241 260 246 237 222 237 248 254 248 230 212 216 228 227 227 250 165 229 189 195 199 202 204 205 206 205 206 208 211 207 213
245 200 239 219 247 256 262 224 246 247 241 231 204 209 228 222 212 232 206 186 197 201 204 206 206 205 207 208 208 210 210 210
250 218 235 253 243 230 242 238 228 251 249 251 222 200 204 232 220 223 224 208 200 205 203 203 205 206 207 207 208 211 209 209
247 259 264 260 249 250 257 250 244 227 234 254 46 229 224 216 227 225 227 212 205 209 199 202 204 207 208 208 210 210 209 210
270 337 334 254 232 248 249 254 246 247 239 238 181 244 237 245 218 231 215 222 209 201 198 202 204 204 207 210 210 209 211 210
268 282 277 282 286 264 264 251 255 251 247 261 248 203 204 232 230 243 247 227 219 213 196 199 202 204 204 211 209 209 209 210
277 272 271 262 256 246 252 254 260 269 276 284 317 276 285 210 265 191 233 243 246 217 215 209 205 204 207 206 210 209 209 211
257 245 248 247 239 244 249 244 249 249 252 269 268 287 263 265 253 220 235 256 238 240 229 221 212 212 212 210 209 211 212 213
267 277 252 252 256 268 257 248 246 246 258 262 262 271 315 270 312 296 266 260 257 250 242 232 226 219 217 213 210 211 213 213
249 249 254 255 294 18 33 280 282 253 238 250 256 261 263 277 239 269 275 273 270 263 254 246 236 226 219 211 211 211 212 212
253 246 245 251 65 9 293 260 291 314 232 247 258 261 253 354 318 301 289 287 287 280 268 253 243 229 223 217 212 211 211 214
229 250 254 35 20 352 249 321 333 323 311 288 272 331 350 332 329 327 318 313 298 287 270 258 246 230 223 220 216 218 212 212
233 245 252 31 296 275 352 319 311 306 304 301 310 326 321 333 342 349 344 334 305 309 272 263 249 228 224 220 217 212 209 207
236 242 69 2 318 292 298 287 287 284 277 283 291 296 322 337 346 3 10 11 9 358 309 276 244 228 223 223 213 204 201 201
334 89 352 320 316 303 283 283 290 277 287 290 287 302 316 337 2 20 26 31 45 68 68 40 118 170 198 198 193 193 195 198
263 318 339 84 321 300 295 293 293 269 274 280 292 297 321 358 25 26 28 23 36 52 64 75 93 131 151 175 196 198 198 197
294 332 303 297 316 328 310 316 6 355 319 280 281 301 346 24 36 31 30 27 22 39 56 62 85 98 121 175 189 197 197 193
323 323 288 332 350 351 334 352 14 72 12 291 279 4 18 39 46 39 31 35 23 25 31 40 64 96 98 92 145 188 193 193